Flight Track Log - Related Links

Times and Time Zones

All times are in EDT time to prevent confusion due to time zone crossing. See the SWA757 flight status page for this flight to view local times or setup timezone preferences in your user account.

Time Position Orientation Groundspeed Altitude Reporting Facility
EDT Latitude Longitude Course Direction KTS MPH feet Rate Location/Type
01:12AM 37.3833 -121.9333 360° North 152 175 1,300  Level Northern Cal TRACON
01:14AM 37.4500 -121.9333 360° North 239 275 5,000 1,345 Climbing Northern Cal TRACON
01:15AM 37.4000 -121.8667 133° Southeast 225 259 5,200 1,317 Climbing Northern Cal TRACON
01:16AM 37.3619 -121.8242 138° Southeast 230 265 7,700 2,855 Climbing Oakland Center
01:17AM 37.2944 -121.7492 139° Southeast 274 315 11,100 3,246 Climbing Oakland Center
01:18AM 37.2239 -121.6686 138° Southeast 336 387 14,300 3,246 Climbing Oakland Center
01:19AM 37.1478 -121.5803 137° Southeast 369 425 17,700 3,295 Climbing Oakland Center
01:20AM 37.0642 -121.4900 139° Southeast 384 442 21,000 3,025 Climbing Oakland Center
01:21AM 36.9786 -121.3981 139° Southeast 404 465 23,800 2,529 Climbing Oakland Center
01:22AM 36.8900 -121.2989 138° Southeast 427 491 26,100 2,164 Climbing Oakland Center
01:23AM 36.8078 -121.2106 139° Southeast 441 507 28,200 2,016 Climbing Oakland Center
01:24AM 36.7125 -121.1086 139° Southeast 450 518 30,200 2,182 Climbing Oakland Center
01:25AM 36.5942 -120.9817 139° Southeast 464 534 32,600 2,281 Climbing Oakland Center
01:26AM 36.4978 -120.8756 138° Southeast 464 534 34,800 1,820 Climbing Oakland Center
01:27AM 36.4006 -120.7717 139° Southeast 461 531 36,300 1,525 Climbing Oakland Center
01:28AM 36.3017 -120.6664 139° Southeast 466 536 37,900 1,279 Climbing Oakland Center
01:29AM 36.2042 -120.5631 139° Southeast 463 533 38,900 545 Climbing Oakland Center
01:30AM 36.1064 -120.4600 140° Southeast 462 532 39,000 50 Climbing Oakland Center
01:31AM 36.0089 -120.3572 140° Southeast 461 531 39,000  Level Oakland Center
01:32AM 35.9128 -120.2561 140° Southeast 454 522 39,000  Level Oakland Center
01:33AM 35.8161 -120.1542 139° Southeast 455 524 39,000  Level Oakland Center
01:34AM 35.7183 -120.0519 140° Southeast 456 525 39,000  Level Oakland Center
01:35AM 35.6181 -119.9531 141° Southeast 456 525 39,000  Level Oakland Center
01:36AM 35.5769 -119.9183 146° Southeast 456 525 39,000  Level Los Angeles Center
01:36AM 35.5144 -119.8642 145° Southeast 452 520 39,000  Level Oakland Center
01:37AM 35.4100 -119.7742 145° Southeast 453 521 39,000  Level Oakland Center
01:38AM 35.3492 -119.7214 145° Southeast 452 520 39,000  Level Los Angeles Center
01:39AM 35.2456 -119.6314 145° Southeast 454 522 39,000  Level Los Angeles Center
01:40AM 35.1422 -119.5436 145° Southeast 453 521 39,000  Level Los Angeles Center
01:41AM 35.0383 -119.4553 145° Southeast 452 520 39,000  Level Los Angeles Center
01:42AM 34.9347 -119.3664 145° Southeast 455 524 39,000  Level Los Angeles Center
01:43AM 34.8308 -119.2783 145° Southeast 455 524 39,000  Level Los Angeles Center
01:44AM 34.7281 -119.1908 145° Southeast 452 520 39,000  Level Los Angeles Center
01:45AM 34.6133 -119.0958 146° Southeast 453 521 39,000  Level Los Angeles Center
01:46AM 34.5086 -119.0106 146° Southeast 454 522 39,000  Level Los Angeles Center
01:47AM 34.4036 -118.9222 145° Southeast 458 527 39,000  Level Los Angeles Center
01:48AM 34.3033 -118.8272 142° Southeast 459 528 39,000  Level Los Angeles Center
01:49AM 34.2083 -118.7225 138° Southeast 463 533 39,000  Level Los Angeles Center
01:50AM 34.1103 -118.6189 139° Southeast 466 536 39,000 -49 Level Los Angeles Center
01:51AM 34.0122 -118.5167 139° Southeast 467 537 38,900 -1,230 Descending Los Angeles Center
01:52AM 33.9178 -118.4125 138° Southeast 462 532 36,500 -2,705 Descending Los Angeles Center
01:53AM 33.8289 -118.2958 133° Southeast 463 533 33,400 -3,000 Descending Los Angeles Center
01:54AM 33.7331 -118.1758 134° Southeast 469 540 30,400 -2,705 Descending Los Angeles Center
01:55AM 33.6456 -118.0636 133° Southeast 461 531 27,900 -2,380 Descending Los Angeles Center
01:56AM 33.5631 -117.9594 134° Southeast 436 502 25,600 -1,835 Descending Los Angeles Center
01:57AM 33.4833 -117.8575 133° Southeast 423 487 24,200 -1,907 Descending Los Angeles Center
01:58AM 33.4167 -117.7667 131° Southeast 403 464 22,200 -2,377 Descending Southern California TRACON
01:59AM 33.3333 -117.6667 135° Southeast 394 453 20,000 -1,895 Descending Southern California TRACON
01:59AM 33.3300 -117.6644 151° Southeast 400 460 19,800 -2,100 Descending Los Angeles Center
02:00AM 33.2667 -117.5833 133° Southeast 384 442 17,900 -2,195 Descending Southern California TRACON
02:02AM 33.1000 -117.4333 143° Southeast 351 404 13,800 -2,029 Descending Southern California TRACON
02:02AM 33.0772 -117.4219 157° South 354 407 13,200 -2,025 Descending Los Angeles Center
02:03AM 32.9983 -117.3592 146° Southeast 344 396 11,100 -1,824 Descending Los Angeles Center
02:04AM 32.9500 -117.3167 144° Southeast 325 374 10,100 -1,188 Descending Southern California TRACON
02:05AM 32.8833 -117.2667 148° Southeast 289 333 9,100 -1,125 Descending Southern California TRACON
02:05AM 32.8589 -117.2458 144° Southeast 297 342 8,600 -1,481 Descending Los Angeles Center
02:06AM 32.8183 -117.1644 121° Southeast 287 330 7,100 -1,623 Descending Los Angeles Center
02:07AM 32.7803 -117.0900 121° Southeast 285 328 5,300 -1,680 Descending Los Angeles Center
02:08AM 32.7667 -117.0167 102° East 268 308 4,300 -788 Descending Southern California TRACON
02:09AM 32.7333 -116.9667 128° Southeast 232 267 4,000 -533 Descending Southern California TRACON
02:11AM 32.7000 -117.0500 245° Southwest 156 180 2,700 -767 Descending Southern California TRACON
02:12AM 32.7167 -117.1000 292° West 135 155 1,700 -850 Descending Southern California TRACON
02:13AM 32.7167 -117.1333 270° West 143 165 1,000 -628 Descending Southern California TRACON
02:13AM 32.7222 -117.1439 302° West 138 159 800 -462 Descending Los Angeles Center
02:16AM 32.7333 -117.1833 280° West  Level FlightAware Approximate

Login

Don't have an account? Register now (free) for customized features, flight alerts, and more!